User: anonymous   Login
Location: Unspecified
(0.0000°N, 0.0000°E)
Time: 00:14:37
(UTC+00:00)
Language:

GEOEYE 1 - Orbit

View from above orbital plane
View from above orbital plane
View from above satellite
View from above satellite

Ground track
Ground track

The orbit data is extracted from the following two-line orbital elements,

1 33331U 08042A   16337.30267064  .00000127  00000-0  33267-4 0  9990
2 33331  98.1319  49.2335 0009698 159.4498 200.7099 14.64114968440294
Epoch (UTC): 02 December 2016 07:15:50
Eccentricity: 0.0009698
inclination: 98.1319°
perigee height: 673 km
apogee height: 687 km
right ascension of ascending node: 49.2335°
argument of perigee: 159.4498°
revolutions per day: 14.64114968
mean anomaly at epoch: 200.7099°
orbit number at epoch: 44029

The dashed part of the orbit path shows where the satellite is in the earth's shadow,  

DLR